Location: Presov
(49.0000°N, 21.2500°E)
Time: 02:30:11
(UTC+02:00)

ISS - Pass Details

Date: 24 March 2019
Orbit: 408 x 410 km, 51.6° (Epoch: 23 April)

Event Time Altitude Azimuth Distance (km) Brightness Sun altitude
Rises 21:04:33 0° 272° (W) 2,335 0.7 -29.2°
Reaches altitude 10° 21:06:41 10° 278° (W) 1,474 -0.4 -29.5°
Enters shadow 21:06:50 11° 278° (W) 1,413 -0.5 -29.5°
